User: anonymous   Login
Location: Unspecified
(0.0000°N, 0.0000°E)
Time: 18:11:23
(UTC+01:00)
Language:

Atlas Centaur 2 - Orbit

View from above orbital plane
View from above orbital plane
View from above satellite
View from above satellite

Ground track
Ground track

The orbit data is extracted from the following two-line orbital elements,

1 00694U 63047A   17016.14753294  .00000293  00000-0  24880-4 0  9999
2 00694  30.3564 281.2492 0588261 152.5887 210.7055 14.01989166661363
Epoch (UTC): 16 January 2017 03:32:26
Eccentricity: 0.0588261
inclination: 30.3564°
perigee height: 459 km
apogee height: 1314 km
right ascension of ascending node: 281.2492°
argument of perigee: 152.5887°
revolutions per day: 14.01989166
mean anomaly at epoch: 210.7055°
orbit number at epoch: 66136

The dashed part of the orbit path shows where the satellite is in the earth's shadow,  

DLR